Regional Weather Roundup
Issued by NWS Albany, NY

Home | Current Version | Previous Version | Text Only | Print | Product List | Glossary On
Versions: 1 2 3 4 5 6 7 8 9 10 11 12 13 14 15 16 17 18 19 20 21 22 23 24 25 26 27 28 29 30 31 32 33 34 35 36 37 38 39 40 41 42 43 44 45 46 47 48 49 50
000
ASUS41 KALY 061610
RWRALY

NEW YORK STATE HOURLY WEATHER ROUNDUP
NATIONAL WEATHER SERVICE ALBANY NY
1200 PM EDT MON JUL 06 2015

NOTE: "FAIR" INDICATES FEW OR NO CLOUDS BELOW 12,000 FEET WITH NO
SIGNIFICANT WEATHER AND/OR NO OBSTRUCTIONS TO VISIBILITY.

NYZ032-033-038>043-046>054-057>066-NYZ062>081-061700-
EAST


CITY           SKY/WX    TMP DP  RH WIND       PRES   REMARKS
ALBANY         FAIR      80  60  50 CALM      30.16F
GLENS FALLS    FAIR      78  62  57 SE9       30.16F
POUGHKEEPSIE   FAIR      80  65  59 CALM      30.15F
NEWBURGH       MOSUNNY   79  68  69 VRB6      30.17F
MONTGOMERY     PTSUNNY   80  68  66 VRB5      30.15F
WHITE PLAINS   LGT RAIN  77  64  65 S8        30.17F
ISLIP          PTSUNNY   80  66  62 SW8       30.17S
NEW YORK CITY  CLOUDY    82  63  52 S13       30.16S
CENTRAL PARK   PTSUNNY   81  64  56 VRB5      30.19S
$$

NYZ005>009-017-018-044>046-055-056-061700-
CENTRAL


CITY           SKY/WX    TMP DP  RH WIND       PRES   REMARKS
FULTON         FAIR      79  65  62 E5        30.15R
SYRACUSE       CLOUDY    79  66  64 NE6       30.14R
ROME           FAIR      80  62  54 CALM      30.17R
ELMIRA         CLOUDY    77  67  71 W5        30.13S
BINGHAMTON     CLOUDY    73  64  73 VRB3      30.19R
MONTICELLO     PTSUNNY   77  64  65 S9        30.21R
$$

NYZ026>034-041>043-061700-
NORTH


CITY           SKY/WX    TMP DP  RH WIND       PRES   REMARKS
WATERTOWN      FAIR      81  60  48 SE5       30.14R
FORT DRUM      NOT AVBL
MASSENA        FAIR      80  61  52 S6        30.13F
SARANAC LAKE   FAIR      74  47  38 VRB5      30.18F
PLATTSBURGH    FAIR      76  63  64 SE8       30.15F
$$

NYZ001>004-010>016-019>021-061700-
WEST


CITY           SKY/WX    TMP DP  RH WIND       PRES   REMARKS
NIAGARA FALLS  FAIR      79  65  62 VRB6      30.09S
BUFFALO        FAIR      81  64  56 W7        30.10S
DUNKIRK        CLOUDY    74  65  73 N9        30.10R
JAMESTOWN      PTSUNNY   73  64  73 E3        30.14F
WELLSVILLE     PTSUNNY   72  64  76 S9G23     30.20R
ROCHESTER      PTSUNNY   80  66  62 W5        30.12R
PENN YAN       CLOUDY    77  66  68 SW6       30.15R
$$

             KEY
       WCI = WIND CHILL INDEX
       VSB = VISIBILITY
       HX  = HEAT INDEX
$$


USA.gov is the U.S. government's official web portal to all federal, state and local government web resources and services.